User: anonymous   Login
Location: Peebles
(55.6412°N, 3.1714°W)
Time: 02:26:24
(UTC+00:00)
Language:

ARGOS - Orbit

View from above orbital plane
View from above orbital plane
View from above satellite
View from above satellite

Ground track
Ground track

The orbit data is extracted from the following two-line orbital elements,

1 25634U 99008A   21333.28807569  .00000000  00000-0  19516-4 0  9999
2 25634  98.4070 352.7711 0010277 174.6334 185.4955 14.19409171178641
Epoch (UTC): 29 November 2021 06:54:49
Eccentricity: 0.0010277
inclination: 98.4070°
perigee height: 820 km
apogee height: 835 km
right ascension of ascending node: 352.7711°
argument of perigee: 174.6334°
revolutions per day: 14.19409171
mean anomaly at epoch: 185.4955°
orbit number at epoch: 17864

The dashed part of the orbit path shows where the satellite is in the earth's shadow,  

DLR